Regional Weather Roundup
Issued by NWS

Home | Current Version | Previous Version | Graphics & Text | Print | Product List | Glossary On
Versions: 1 2 3 4 5 6 7 8 9 10 11 12 13 14 15 16 17 18 19 20 21 22 23 24 25 26 27 28 29 30 31 32 33 34 35 36 37 38 39 40 41 42 43 44 45 46 47 48 49 50
000
ASUS43 KFSD 252310
RWRSD

WEATHER ROUNDUP FOR SOUTH DAKOTA
NATIONAL WEATHER SERVICE SIOUX FALLS SD
600 PM CDT FRI JUL 25 2014

NOTE: "FAIR" INDICATES FEW OR NO CLOUDS BELOW 12,000 FEET WITH NO
SIGNIFICANT WEATHER AND/OR OBSTRUCTIONS TO VISIBILITY.


SDZ001>005-009-010-012>017-260000-
NORTHWEST AND NORTH CENTRAL SOUTH DAKOTA

CITY           SKY/WX    TMP DP  RH WIND       PRES   REMARKS
BUFFALO          N/A     83  47  28 S12       29.80F
FAITH            N/A     83  45  26 NE6       29.86F
MOBRIDGE       SUNNY     84  49  29 NE8       29.80F
$$

SDZ012>016-024>037-041>051-057-063-072>074-260000-
SOUTHWEST AND SOUTH CENTRAL SOUTH DAKOTA

CITY           SKY/WX    TMP DP  RH WIND       PRES   REMARKS
RAPID CTY ARPT LGT RAIN  80  53  39 SE13      29.88F
PIERRE         SUNNY     88  46  23 N12       29.80S
CUSTER         SUNNY     77  47  34 S9        30.01F
ELLSWORTH AFB  SUNNY     82  50  33 S13       29.87F
PHILIP         SUNNY     90  41  18 NE6       29.82F
PINE RIDGE     SUNNY     82  55  39 E9        29.88F
WINNER         FAIR      93  62  35 NW7       29.80F
$$

SDZ004>011-016>023-039-040-260000-
NORTHEAST SOUTH DAKOTA

CITY           SKY/WX    TMP DP  RH WIND       PRES   REMARKS
ABERDEEN       SUNNY     81  60  48 N16       29.79R
WATERTOWN      MOSUNNY   77  67  71 N9        29.79F
SISSETON         N/A     76  69  79 N6        29.76F
$$

SDZ017-020-022-023-036>040-048>070-260000-
SOUTHEAST SOUTH DAKOTA

CITY           SKY/WX    TMP DP  RH WIND       PRES   REMARKS
SIOUX FALLS    MOSUNNY   86  71  60 N3        29.77F
HURON          CLOUDY    79  68  69 N12       29.78F
CHAMBERLAIN    PTSUNNY   87  69  54 N8        29.79S
MITCHELL       MOSUNNY   82  70  66 N9        29.79R
YANKTON        SUNNY     86  73  66 E5        29.76R
$$

ABBREVIATIONS USED IN REMARKS
   TC - TEMPERATURE IN CELSIUS
  WCI - WIND CHILL INDEX
   HX - HEAT INDEX
  VSB - VISIBILITY



USA.gov is the U.S. government's official web portal to all federal, state and local government web resources and services.